Location: Rounton
(54.4000°N, 1.3500°W)
Time: 17:33:19
(UTC+00:00)

SR - All Passes

Search period start: 06 December 2021 00:00
Search period end: 16 December 2021 00:00
Orbit: 583 x 871 km, 66.7° (Epoch: 05 December)

Date Brightness Start Highest point End Pass type
(mag) Time Alt. Az. Time Alt. Az. Time Alt. Az.
06 Dec - 01:24:40 10° W 01:28:29 28° NNW 01:32:14 10° NNE night (unlit)
06 Dec - 03:09:03 10° NW 03:11:48 16° N 03:14:32 10° NE visible
06 Dec - 04:51:58 10° NNW 04:55:18 21° NNE 04:58:40 10° ENE visible
06 Dec - 06:33:47 10° NW 06:38:03 65° NE 06:42:28 10° SE visible
06 Dec - 08:16:15 10° WNW 08:19:44 24° WSW 08:23:18 10° S daylight
06 Dec - 22:52:07 10° S 22:56:20 41° ESE 23:00:23 10° NE night (unlit)
07 Dec - 00:34:09 10° WSW 00:38:22 42° NW 00:42:26 10° NE night (unlit)
07 Dec - 02:18:24 10° WNW 02:21:24 18° NNW 02:24:23 10° NNE night (unlit)
07 Dec - 04:02:00 10° NNW 04:04:57 18° NNE 04:07:55 10° ENE visible
07 Dec - 05:43:59 10° NW 05:48:02 40° NE 05:52:11 10° ESE visible
07 Dec - 07:26:00 10° NW 07:30:05 43° WSW 07:34:20 10° SSE visible
07 Dec - 22:03:12 10° SSE 22:06:43 23° ESE 22:10:06 10° ENE night (unlit)
07 Dec - 23:43:55 10° SW 23:48:21 68° NW 23:52:37 10° NE night (unlit)
08 Dec - 01:27:39 10° WNW 01:31:04 22° NNW 01:34:27 10° NNE night (unlit)
08 Dec - 03:11:49 10° NW 03:14:33 16° N 03:17:17 10° NE visible
08 Dec - 04:54:11 10° NNW 04:57:53 28° NNE 05:01:39 10° E visible
08 Dec - 06:36:01 10° NW 06:40:19 79° SW 06:44:47 10° SE visible
08 Dec - 08:19:22 10° WNW 08:21:40 14° WSW 08:23:59 10° SW daylight
08 Dec - 21:15:27 10° SE 21:17:13 12° ESE 21:18:57 10° E night (unlit)
08 Dec - 22:54:02 10° SSW 22:58:29 70° SE 23:02:45 10° NE night (unlit)
09 Dec - 00:36:58 10° W 00:40:49 29° NNW 00:44:36 10° NNE night (unlit)
09 Dec - 02:21:22 10° NW 02:24:07 16° N 02:26:53 10° NE visible
09 Dec - 04:04:20 10° NNW 04:07:37 21° NNE 04:10:57 10° ENE visible
09 Dec - 05:46:09 10° NW 05:50:25 61° NE 05:54:49 10° SE visible
09 Dec - 07:28:33 10° WNW 07:32:08 26° WSW 07:35:50 10° S visible
09 Dec - 22:04:35 10° S 22:08:44 38° ESE 22:12:43 10° NE night (unlit)
09 Dec - 23:46:29 10° WSW 23:50:42 44° NW 23:54:49 10° NE night (unlit)
10 Dec - 01:30:41 10° WNW 01:33:44 18° NNW 01:36:45 10° NNE night (unlit)
10 Dec - 03:14:21 10° NNW 03:17:16 18° NNE 03:20:12 10° NE visible
10 Dec - 04:56:21 10° NNW 05:00:23 38° NE 05:04:31 10° ESE visible
10 Dec - 06:38:20 10° NW 06:42:29 46° WSW 06:46:47 10° SSE visible
10 Dec - 21:15:45 10° SSE 21:19:07 21° ESE 21:22:23 10° ENE night (unlit)
10 Dec - 22:56:18 10° SW 23:00:43 72° NW 23:04:59 10° NE night (unlit)
11 Dec - 00:39:56 10° WNW 00:43:23 23° NNW 00:46:49 10° NNE night (unlit)
11 Dec - 02:24:08 10° NW 02:26:51 16° N 02:29:34 10° NE visible
11 Dec - 04:06:33 10° NNW 04:10:13 27° NNE 04:13:58 10° E visible
11 Dec - 05:48:22 10° NW 05:52:41 83° SW 05:57:11 10° SE visible
11 Dec - 07:31:34 10° WNW 07:34:04 15° WSW 07:36:39 10° SW visible
11 Dec - 20:28:18 10° SE 20:29:39 11° ESE 20:30:58 10° E night (unlit)
11 Dec - 22:06:27 10° SSW 22:10:51 65° SE 22:15:06 10° NE night (unlit)
11 Dec - 23:49:17 10° W 23:53:10 30° NNW 23:56:59 10° NNE night (unlit)
12 Dec - 01:33:39 10° NW 01:36:26 16° N 01:39:13 10° NE night (unlit)
12 Dec - 03:16:41 10° NNW 03:19:56 21° NNE 03:23:14 10° ENE visible
12 Dec - 04:58:31 10° NW 05:02:46 58° NE 05:07:11 10° ESE visible
12 Dec - 06:40:51 10° WNW 06:44:32 27° WSW 06:48:21 10° S visible
12 Dec - 21:17:04 10° S 21:21:07 35° ESE 21:25:03 10° NE night (unlit)
12 Dec - 22:58:49 10° WSW 23:03:03 46° NW 23:07:10 10° NE night (unlit)
13 Dec - 00:42:58 10° WNW 00:46:02 19° NNW 00:49:06 10° NNE night (unlit)
13 Dec - 02:26:41 10° NNW 02:29:35 17° N 02:32:30 10° NE visible
13 Dec - 04:08:43 10° NNW 04:12:43 37° NE 04:16:50 10° ESE visible
13 Dec - 05:50:41 10° NW 05:54:51 49° WSW 05:59:14 10° SSE visible
13 Dec - 20:28:19 10° SSE 20:31:32 20° ESE 20:34:39 10° ENE night (unlit)
13 Dec - 22:08:39 10° SW 22:13:04 77° NW 22:17:21 10° NE night (unlit)
13 Dec - 23:52:13 10° WNW 23:55:43 23° NNW 23:59:11 10° NNE night (unlit)
14 Dec - 01:36:27 10° NW 01:39:10 16° N 01:41:53 10° NE night (unlit)
14 Dec - 03:18:55 10° NNW 03:22:32 26° NNE 03:26:15 10° E visible
14 Dec - 05:00:44 10° NW 05:05:03 88° SW 05:09:35 10° SE visible
14 Dec - 06:43:45 10° WNW 06:46:29 16° WSW 06:49:18 10° SSW visible
14 Dec - 19:41:25 10° ESE 19:42:04 10° ESE 19:42:42 10° E night (unlit)
14 Dec - 21:18:52 10° SSW 21:23:13 61° SE 21:27:26 10° NE night (unlit)
14 Dec - 23:01:35 10° W 23:05:29 32° NNW 23:09:21 10° NNE night (unlit)
15 Dec - 00:45:57 10° NW 00:48:44 17° N 00:51:32 10° NNE night (unlit)
15 Dec - 02:29:02 10° NNW 02:32:15 20° NNE 02:35:32 10° ENE night (unlit)
15 Dec - 04:10:53 10° NW 04:15:07 55° NE 04:19:32 10° ESE visible
15 Dec - 05:53:09 10° WNW 05:56:56 29° WSW 06:00:51 10° S visible
15 Dec - 20:29:32 10° S 20:33:30 33° ESE 20:37:22 10° NE night (unlit)
15 Dec - 22:11:09 10° WSW 22:15:24 48° NW 22:19:33 10° NE night (unlit)
